Madison, SD

10:02 AM CDT on September 23, 2017 (GMT -0500)
Madison Municipal

Weather History for KMDS - February, 2013

Change the Weather History Date:

Thursday, February 14, 2013

  Actual Average Record
Temperature  
Mean Temperature 18 °F -  
Max Temperature 30 °F 27 °F 44 °F (2012)
Min Temperature 6 °F 10 °F -4 °F (2014)
Degree Days  
Heating Degree Days 47    
Moisture  
Dew Point 21 °F    
Average Humidity 96    
Maximum Humidity 100    
Minimum Humidity 74    
Precipitation  
Precipitation 1.22 in - - ()
Sea Level Pressure  
Sea Level Pressure 29.99 in    
Wind  
Wind Speed 16 mph (NNW)    
Max Wind Speed 26 mph    
Max Gust Speed 34 mph    
Visibility 9 miles    
Events Rain , Snow    
Averages and records for this station are not official NWS values.
T = Trace of Precipitation, MM = Missing Value Source: NWS Daily Summary

Daily Weather History Graph

Daily Weather History Graph

Search for Another Location

Airport or City:

Trip Planner

Search our weather history database for the weather conditions in past years. The results will help you decide how hot, cold, wet, or windy it might be!

Date:

Astronomy

Feb. 14, 2013 Rise Set
Actual Time 7:28 AM CST 5:57 PM CST
Civil Twilight 6:58 AM CST 6:26 PM CST
Nautical Twilight 6:25 AM CST 7:00 PM CST
Astronomical Twilight 5:51 AM CST 7:34 PM CST
Moon 9:19 AM CST (2/14) 11:14 PM CST (2/14)
Length of Visible Light 11h 27m
Length of Day
10h 28m
Waxing Crescent, 22% of the Moon is Illuminated
Feb 14
Waxing Crescent
Feb 17
First Quarter
Feb 25
Full
Mar 4
Last Quarter
Mar 11
New

Hourly Weather History & Observations

Time (CST) Temp. Windchill Dew Point Humidity Pressure Visibility Wind Dir Wind Speed Gust Speed Precip Events Conditions
12:00 AM 30.2 °F 18.5 °F 30.2 °F 100% 29.73 in 10.0 mi NW 17.3 mph 23.0 mph N/A   Overcast
12:20 AM 28.4 °F 17.0 °F 28.4 °F 100% 29.74 in 10.0 mi NW 15.0 mph - N/A   Mostly Cloudy
12:40 AM 28.4 °F 14.7 °F 28.4 °F 100% 29.76 in 10.0 mi North 21.9 mph - N/A   Mostly Cloudy
1:00 AM 28.4 °F 15.4 °F 28.4 °F 100% 29.77 in 10.0 mi NNW 19.6 mph 24.2 mph N/A   Overcast
1:20 AM 28.4 °F 17.5 °F 28.4 °F 100% 29.77 in 10.0 mi NNW 13.8 mph - N/A   Overcast
1:40 AM 26.6 °F 13.4 °F 26.6 °F 100% 29.78 in 10.0 mi NW 18.4 mph - N/A   Mostly Cloudy
2:00 AM 26.6 °F 13.8 °F 26.6 °F 100% 29.78 in 10.0 mi NW 17.3 mph 25.3 mph N/A   Partly Cloudy
2:20 AM 26.6 °F 13.1 °F 26.6 °F 100% 29.79 in 10.0 mi NNW 19.6 mph 26.5 mph N/A   Mostly Cloudy
2:40 AM 24.8 °F 12.4 °F 24.8 °F 100% 29.80 in 10.0 mi NW 15.0 mph - N/A   Mostly Cloudy
3:00 AM 24.8 °F 11.9 °F 24.8 °F 100% 29.81 in 10.0 mi NW 16.1 mph 19.6 mph N/A   Mostly Cloudy
3:20 AM 26.6 °F 14.7 °F 26.6 °F 100% 29.81 in 10.0 mi NW 15.0 mph - N/A   Overcast
3:40 AM 26.6 °F 15.7 °F 26.6 °F 100% 29.81 in 10.0 mi NW 12.7 mph - N/A   Overcast
4:00 AM 26.6 °F 16.2 °F 26.6 °F 100% 29.82 in 10.0 mi NW 11.5 mph - N/A   Overcast
4:20 AM 26.6 °F 17.5 °F 26.6 °F 100% 29.81 in 10.0 mi WNW 9.2 mph - N/A   Overcast
4:40 AM 24.8 °F 14.6 °F 24.8 °F 100% 29.82 in 7.0 mi WNW 10.4 mph - N/A   Overcast
5:00 AM 24.8 °F 15.3 °F 24.8 °F 100% 29.82 in 8.0 mi WNW 9.2 mph - N/A   Overcast
5:20 AM 26.6 °F 18.2 °F 26.6 °F 100% 29.83 in 10.0 mi WNW 8.1 mph - N/A   Overcast
5:40 AM 26.6 °F 19.1 °F 26.6 °F 100% 29.82 in 10.0 mi NW 6.9 mph - N/A   Overcast
6:00 AM 26.6 °F 20.0 °F 26.6 °F 100% 29.82 in 10.0 mi West 5.8 mph - N/A   Overcast
6:20 AM 26.6 °F 22.6 °F 26.6 °F 100% 29.82 in 3.0 mi West 3.5 mph - 0.05 in Snow Light Snow
6:40 AM 26.6 °F 20.0 °F 26.6 °F 100% 29.82 in 10.0 mi West 5.8 mph - 0.05 in   Overcast
7:00 AM 26.6 °F 18.2 °F 26.6 °F 100% 29.83 in 10.0 mi WSW 8.1 mph - 0.05 in   Mostly Cloudy
7:20 AM 26.6 °F 16.2 °F 26.6 °F 100% 29.83 in 10.0 mi West 11.5 mph 17.3 mph N/A   Partly Cloudy
7:40 AM 26.6 °F 14.3 °F 26.6 °F 100% 29.84 in 10.0 mi West 16.1 mph 20.7 mph N/A   Clear
8:00 AM 26.6 °F 13.4 °F 26.6 °F 100% 29.85 in 10.0 mi WNW 18.4 mph - N/A   Clear
8:20 AM 26.6 °F 13.1 °F 26.6 °F 100% 29.86 in 10.0 mi WNW 19.6 mph 24.2 mph N/A   Clear
8:40 AM 28.4 °F 16.2 °F 28.4 °F 100% 29.86 in 10.0 mi WNW 17.3 mph 24.2 mph N/A   Clear
9:00 AM 28.4 °F 15.1 °F 28.4 °F 100% 29.86 in 10.0 mi NW 20.7 mph - N/A   Clear
9:20 AM 28.4 °F 15.4 °F 28.4 °F 100% 29.87 in 10.0 mi NW 19.6 mph 26.5 mph N/A   Mostly Cloudy
9:40 AM 28.4 °F 15.4 °F 28.4 °F 100% 29.88 in 10.0 mi NW 19.6 mph 26.5 mph N/A Snow Light Snow
10:00 AM 28.4 °F 15.1 °F 28.4 °F 100% 29.89 in 4.0 mi NW 20.7 mph 24.2 mph 0.18 in Snow Light Snow
10:20 AM 30.2 °F 16.5 °F 30.2 °F 100% 29.89 in 10.0 mi NW 24.2 mph 27.6 mph 0.06 in Snow Light Snow
10:40 AM 30.2 °F 16.8 °F 30.2 °F 100% 29.90 in 1.0 mi NW 23.0 mph 29.9 mph 0.30 in Snow Light Snow
11:00 AM 30.2 °F 15.9 °F 30.2 °F 100% 29.91 in 1.0 mi North 26.5 mph 34.5 mph 0.73 in Snow Light Snow
11:20 AM 26.6 °F 13.8 °F 26.6 °F 100% 29.93 in 4.0 mi NNE 17.3 mph - 0.07 in   Mostly Cloudy
11:40 AM 24.8 °F 11.5 °F 24.8 °F 100% 29.94 in 10.0 mi NNE 17.3 mph - 0.09 in Rain Light Freezing Rain
12:00 PM 26.6 °F 14.3 °F 26.6 °F 100% 29.95 in 10.0 mi NNE 16.1 mph 21.9 mph 0.09 in Rain Light Freezing Rain
12:20 PM 24.8 °F 12.9 °F 24.8 °F 100% 29.96 in 10.0 mi NNE 13.8 mph - N/A   Overcast
12:40 PM 24.8 °F 11.1 °F 24.8 °F 100% 29.97 in 10.0 mi NNE 18.4 mph - N/A   Mostly Cloudy
1:00 PM 24.8 °F 10.7 °F 24.8 °F 100% 29.98 in 10.0 mi NNE 19.6 mph - N/A   Mostly Cloudy
1:20 PM 24.8 °F 11.5 °F 24.8 °F 100% 29.99 in 10.0 mi NNE 17.3 mph - N/A   Mostly Cloudy
1:40 PM 24.8 °F 11.5 °F 24.8 °F 100% 30.00 in 10.0 mi NNE 17.3 mph - N/A   Overcast
2:00 PM 24.8 °F 10.7 °F 19.4 °F 80% 30.01 in 10.0 mi NNE 19.6 mph - N/A   Overcast
2:20 PM 23.0 °F 8.7 °F 19.4 °F 86% 30.03 in 10.0 mi North 18.4 mph 23.0 mph N/A   Mostly Cloudy
2:40 PM 23.0 °F 9.6 °F 19.4 °F 86% 30.04 in 10.0 mi North 16.1 mph - N/A   Partly Cloudy
3:00 PM 23.0 °F 8.0 °F 17.6 °F 80% 30.06 in 10.0 mi North 20.7 mph - N/A   Mostly Cloudy
3:20 PM 23.0 °F 8.0 °F 15.8 °F 74% 30.08 in 10.0 mi North 20.7 mph 26.5 mph N/A   Mostly Cloudy
3:40 PM 23.0 °F 9.2 °F 15.8 °F 74% 30.10 in 10.0 mi North 17.3 mph - N/A   Scattered Clouds
4:00 PM 21.2 °F 5.6 °F 15.8 °F 80% 30.11 in 10.0 mi North 20.7 mph - N/A   Partly Cloudy
4:20 PM 19.4 °F 3.6 °F 14.0 °F 80% 30.12 in 10.0 mi North 19.6 mph - N/A   Clear
4:40 PM 17.6 °F 1.7 °F 15.8 °F 93% 30.14 in 10.0 mi North 18.4 mph 23.0 mph N/A   Clear
5:00 PM 17.6 °F 2.2 °F 15.8 °F 93% 30.15 in 10.0 mi North 17.3 mph - N/A   Clear
5:20 PM 17.6 °F 3.2 °F 12.2 °F 79% 30.17 in 10.0 mi NNW 15.0 mph 25.3 mph N/A   Partly Cloudy
5:40 PM 15.8 °F -1.1 °F 12.2 °F 86% 30.18 in 10.0 mi NNW 19.6 mph 24.2 mph N/A   Scattered Clouds
6:00 PM 15.8 °F -0.6 °F 12.2 °F 86% 30.18 in 10.0 mi NNW 18.4 mph 23.0 mph N/A   Scattered Clouds
6:20 PM 14.0 °F -3.0 °F 10.4 °F 86% 30.19 in 10.0 mi NNW 18.4 mph 25.3 mph N/A   Partly Cloudy
6:40 PM 14.0 °F -2.5 °F 12.2 °F 93% 30.20 in 10.0 mi NNW 17.3 mph - N/A   Partly Cloudy
7:00 PM 14.0 °F -3.0 °F 12.2 °F 93% 30.21 in 10.0 mi NNW 18.4 mph 23.0 mph N/A   Clear
7:20 PM 12.2 °F -5.8 °F 12.2 °F 100% 30.22 in 10.0 mi NNW 19.6 mph 24.2 mph N/A   Clear
7:40 PM 12.2 °F -4.3 °F 10.4 °F 92% 30.22 in 10.0 mi NNW 16.1 mph - N/A   Clear
8:00 PM 10.4 °F -6.6 °F 10.4 °F 100% 30.23 in 10.0 mi NNW 16.1 mph - N/A   Clear
8:20 PM 10.4 °F -4.8 °F 10.4 °F 100% 30.23 in 10.0 mi NNW 12.7 mph - N/A   Clear
8:40 PM 8.6 °F -5.5 °F 8.6 °F 100% 30.23 in 10.0 mi NNW 10.4 mph - N/A   Clear
9:00 PM 8.6 °F -6.3 °F 8.6 °F 100% 30.23 in 10.0 mi NW 11.5 mph - N/A   Clear
9:20 PM 8.6 °F -7.0 °F 8.6 °F 100% 30.23 in 10.0 mi NW 12.7 mph - N/A   Clear
9:40 PM 8.6 °F -7.0 °F 8.6 °F 100% 30.24 in 10.0 mi NW 12.7 mph - N/A   Clear
10:00 PM 8.6 °F -6.3 °F 8.6 °F 100% 30.23 in 10.0 mi NW 11.5 mph - N/A   Clear
10:20 PM 6.8 °F -6.9 °F 6.8 °F 100% 30.24 in 10.0 mi NNW 9.2 mph - N/A   Clear
10:40 PM 6.8 °F -6.9 °F 6.8 °F 100% 30.24 in 10.0 mi NNW 9.2 mph - N/A   Clear
11:00 PM 6.8 °F -6.9 °F 6.8 °F 100% 30.24 in 10.0 mi NW 9.2 mph - N/A   Clear
11:20 PM 6.8 °F -6.9 °F 6.8 °F 100% 30.23 in 10.0 mi NW 9.2 mph - N/A   Clear
11:40 PM 6.8 °F -5.9 °F 6.8 °F 100% 30.23 in 10.0 mi NW 8.1 mph - N/A   Clear